Tracking 30692 objects as of 17-Jun-2025
HD Live streaming from Space Station
objects crossing your sky now

FENGYUN 1C DEB

Track FENGYUN 1C DEB now!
10-day predictions


NORAD ID: 30420
Int'l Code: 1999-025AEK
Perigee: 408.6 km
Apogee: 473.3 km
Inclination: 98.9 °
Period: 93.3 minutes
Semi major axis: 6811 km
RCS: 0.046 m2 (small)
Launch date: May 10, 1999
Source: People's Republic of China (PRC)
Launch site: Taiyaun Space Center, China (TSC)

Note: This is SATELLITE DEBRIS
Your satellite tracking list
Your tracking list is empty




NASA's NSSDC Master Catalog

Two Line Element Set (TLE):
1 30420U 99025AEK 25167.35402172  .00049758  00000-0  10379-2 0  9994
2 30420  98.9248 212.8751 0047523 246.8379 112.7854 15.44165466988406
Source of the keplerian elements: AFSPC